TimePST,TemperatureF,Dew PointF,Humidity,Sea Level PressureIn,VisibilityMPH,Wind Direction,Wind SpeedMPH,Gust SpeedMPH,PrecipitationIn,Events,Conditions,WindDirDegrees,DateUTC
12:53 AM,48.9,46.9,93,29.93,6.0,West,15.0,-,0.10,Rain,Light Rain,270,2013-12-07 08:53:00
1:53 AM,48.0,46.0,93,29.95,10.0,West,13.8,-,0.00,Rain,Light Rain,280,2013-12-07 09:53:00
2:53 AM,46.9,39.9,77,29.97,10.0,West,10.4,-,0.00,,Overcast,270,2013-12-07 10:53:00
3:53 AM,45.0,37.9,76,29.98,10.0,West,9.2,-,N/A,,Clear,270,2013-12-07 11:53:00
4:53 AM,44.1,36.0,73,30.00,10.0,West,11.5,-,N/A,,Clear,270,2013-12-07 12:53:00
5:53 AM,42.1,36.0,79,30.02,10.0,WNW,5.8,-,N/A,,Partly Cloudy,290,2013-12-07 13:53:00
6:53 AM,41.0,34.0,76,30.05,10.0,West,4.6,-,N/A,,Scattered Clouds,270,2013-12-07 14:53:00
7:53 AM,42.1,32.0,67,30.07,10.0,WNW,6.9,-,N/A,,Scattered Clouds,290,2013-12-07 15:53:00
8:53 AM,45.0,32.0,60,30.11,10.0,NNW,5.8,-,N/A,,Mostly Cloudy,330,2013-12-07 16:53:00
9:53 AM,46.0,30.9,56,30.12,10.0,WNW,17.3,24.2,N/A,,Partly Cloudy,290,2013-12-07 17:53:00
10:53 AM,46.9,30.0,52,30.12,10.0,WNW,15.0,26.5,N/A,,Partly Cloudy,300,2013-12-07 18:53:00
11:53 AM,48.0,28.0,46,30.12,10.0,WNW,17.3,24.2,N/A,,Partly Cloudy,300,2013-12-07 19:53:00
12:53 PM,48.0,27.0,44,30.10,10.0,NW,17.3,21.9,N/A,,Partly Cloudy,310,2013-12-07 20:53:00
1:53 PM,48.9,25.0,39,30.10,10.0,NW,12.7,-,N/A,,Partly Cloudy,310,2013-12-07 21:53:00
2:53 PM,48.0,26.1,42,30.12,10.0,WNW,12.7,-,N/A,,Scattered Clouds,300,2013-12-07 22:53:00
3:53 PM,46.9,25.0,42,30.15,10.0,West,18.4,-,N/A,,Partly Cloudy,270,2013-12-07 23:53:00
4:53 PM,44.1,25.0,47,30.17,10.0,West,18.4,24.2,N/A,,Partly Cloudy,270,2013-12-08 00:53:00
5:53 PM,43.0,26.1,51,30.17,10.0,West,11.5,-,N/A,,Partly Cloudy,270,2013-12-08 01:53:00
6:53 PM,42.1,26.1,53,30.19,10.0,West,8.1,-,N/A,,Partly Cloudy,260,2013-12-08 02:53:00
7:53 PM,39.9,26.1,58,30.20,10.0,West,6.9,-,N/A,,Partly Cloudy,270,2013-12-08 03:53:00
8:53 PM,39.0,26.1,60,30.22,10.0,Calm,Calm,-,N/A,,Partly Cloudy,0,2013-12-08 04:53:00
9:53 PM,37.9,27.0,65,30.22,10.0,Calm,Calm,-,N/A,,Partly Cloudy,0,2013-12-08 05:53:00
10:53 PM,37.0,27.0,67,30.25,10.0,Calm,Calm,-,N/A,,Clear,0,2013-12-08 06:53:00
11:53 PM,37.0,27.0,67,30.25,10.0,Calm,Calm,-,N/A,,Clear,0,2013-12-08 07:53:00